Location: ????????
(55.6333°N, 37.7000°E)
Time: 15:02:24
(UTC+00:00)

Cosmos 1953 - Pass Details

Date: 19 May 2025
Orbit: 485 x 501 km, 82.5° (Epoch: 20 June)

Event Time Altitude Azimuth Distance (km) Brightness Sun altitude
Rises 22:17:48 0° 353° (N) 2,573 7.2 -13.6°
Reaches altitude 10° 22:20:03 10° 2° (N) 1,687 6.2 -13.5°
Maximum altitude 22:23:28 35° 70° (ENE) 803 3.5 -13.4°
Drops below altitude 10° 22:26:53 10° 138° (SE) 1,680 4.5 -13.3°
Enters shadow 22:27:10 - 140° (SE) 1,791 4.6 -13.3°
